Tracking 30922 objects as of 2-Jul-2025
HD Live streaming from Space Station
objects crossing your sky now

COSMOS 2251 DEB

Track COSMOS 2251 DEB now!
10-day predictions


NORAD ID: 34388
Int'l Code: 1993-036QD
Perigee: 727.4 km
Apogee: 749.7 km
Inclination: 74.0 °
Period: 99.4 minutes
Semi major axis: 7109 km
RCS: 0.032 m2 (small)
Launch date: June 16, 1993
Source: Commonwealth of Independent States (former USSR) (CIS)
Launch site: PLESETSK MISSILE AND SPACE COMPLEX (PKMTR)

Note: This is SATELLITE DEBRIS
Your satellite tracking list
Your tracking list is empty




NASA's NSSDC Master Catalog

Two Line Element Set (TLE):
1 34388U 93036QD  25181.42836872  .00001402  00000-0  38218-3 0  9996
2 34388  74.0380 172.8238 0015712 266.5091 245.1892 14.48246438857618
Source of the keplerian elements: AFSPC